Back to catalog

STARLINK-5169

AliveCommunicationsVLEO
NORAD 54060·PAYLOAD·🇺🇸 United States

Launched Oct 20, 2022 from Cape Canaveral Space Force Station

Loading…

Next Passes (next 24 hours)

TLE

FreshSource: CelesTrak SupGP

Epoch: Sep 14, 2026, 21:11 UTC

1 54060C 22136K   26257.88312500 -.00023683  00000+0 -14853-2 0  2571
2 54060  53.1590 183.8263 0001616 105.3325 170.7351 15.08844157    12

Track STARLINK-5169 in real time with AllMySat

Download on the App Store